Date String (YYYY-MM-DD hh:mm:ss) UTC,Instrument flags,absolute air pressure of the measurement (hPa),sample flow rate (lpm),inlet stack bypass flow (lpm),air temperature of the measurement (°C),ambient temperature measured by the external sensor (°C),aerosol sample conditioner tube jacket temperature (°C),OPC LED temperature (°C),internal box temperature (°C),relative humidity of the measurement (%),span deviation,mass concentration of particles derived from Lorenz-Mie calculation of OPC scattering (μg/m³),mass concentration of particles derived from Lorenz-Mie calculation of OPC scattering (μg/m³),mass concentration of particles derived from Lorenz-Mie calculation of OPC scattering (μg/m³)
DateTimeUTC,F1_M11,P_M11,Q1_M11,Q2_M11,T1_M11,T2_M11,T3_M11,T4_M11,T5_M11,U1_M11,ZSPAN_M11,X0_M11,X2_M11,X1_M11
2024-01-08 05:00:00,SystemResetWarning,0816.4,5.00,000.00,019.2,018.6,000.0,027.6,020.5,11.6,0000.0,0004.77,0002.07,0001.55
2024-01-08 05:01:00,SystemResetWarning,0816.4,5.01,000.00,019.2,018.6,000.0,027.6,020.5,11.6,0000.0,0005.08,0002.11,0001.56
2024-01-08 05:02:00,SystemResetWarning,0816.4,5.00,000.00,019.2,018.6,000.0,027.6,020.5,11.6,0000.0,0004.43,0002.06,0001.55
2024-01-08 05:03:00,SystemResetWarning,0816.4,5.00,000.00,019.2,018.6,000.0,027.6,020.5,11.6,0000.0,0004.08,0002.06,0001.55
2024-01-08 05:04:00,SystemResetWarning,0816.3,5.00,000.00,019.2,018.6,000.0,027.6,020.5,11.6,0000.0,0004.08,0002.05,0001.55
2024-01-08 05:05:00,SystemResetWarning,0816.4,4.99,000.00,019.2,018.6,000.0,027.6,020.5,11.7,0000.0,0003.93,0002.04,0001.54
2024-01-08 05:06:00,SystemResetWarning,0816.4,4.99,000.00,019.2,018.6,000.0,027.6,020.5,11.7,0000.0,0003.81,0002.03,0001.54
2024-01-08 05:07:00,SystemResetWarning,0816.4,5.00,000.00,019.2,018.6,000.0,027.6,020.5,11.7,0000.0,0003.86,0002.04,0001.55
2024-01-08 05:08:00,SystemResetWarning,0816.4,5.01,000.00,019.2,018.6,000.0,027.6,020.5,11.7,0000.0,0003.97,0002.06,0001.54
2024-01-08 05:09:00,SystemResetWarning,0816.4,5.00,000.00,019.2,018.6,000.0,027.6,020.5,11.7,0000.0,0004.04,0002.08,0001.55
2024-01-08 05:10:00,SystemResetWarning,0816.4,5.00,000.00,019.2,018.6,000.0,027.6,020.5,11.8,0000.0,0004.12,0002.12,0001.55
2024-01-08 05:11:00,SystemResetWarning,0816.5,4.99,000.00,019.2,018.6,000.0,027.6,020.5,11.9,0000.0,0003.95,0002.14,0001.55
2024-01-08 05:12:00,SystemResetWarning,0816.5,4.99,000.00,019.2,018.6,000.0,027.6,020.5,11.9,0000.0,0003.62,0002.15,0001.54
2024-01-08 05:13:00,SystemResetWarning,0816.5,5.00,000.00,019.2,018.6,000.0,027.6,020.5,12.0,0000.0,0003.73,0002.17,0001.54
2024-01-08 05:14:00,SystemResetWarning,0816.5,5.00,000.00,019.2,018.6,000.0,027.6,020.5,12.0,0000.0,0003.79,0002.16,0001.54
2024-01-08 05:15:00,SystemResetWarning,0816.5,5.01,000.00,019.2,018.6,000.0,027.6,020.5,12.0,0000.0,0003.70,0002.19,0001.56
2024-01-08 05:16:00,SystemResetWarning,0816.5,5.00,000.00,019.2,018.6,000.0,027.6,020.5,12.0,0000.0,0003.43,0002.14,0001.56
2024-01-08 05:17:00,SystemResetWarning,0816.5,5.00,000.00,019.2,018.6,000.0,027.6,020.5,12.0,0000.0,0003.51,0002.13,0001.56
2024-01-08 05:18:00,SystemResetWarning,0816.5,5.00,000.00,019.2,018.6,000.0,027.6,020.5,12.0,0000.0,0003.49,0002.12,0001.56
2024-01-08 05:19:00,SystemResetWarning,0816.5,5.00,000.00,019.2,018.6,000.0,027.6,020.5,12.0,0000.0,0003.71,0002.13,0001.58
2024-01-08 05:20:00,SystemResetWarning,0816.5,5.00,000.00,019.2,018.6,000.0,027.6,020.5,12.0,0000.0,0003.96,0002.15,0001.58
2024-01-08 05:21:00,SystemResetWarning,0816.5,5.00,000.00,019.2,018.6,000.0,027.6,020.5,12.1,0000.0,0003.95,0002.14,0001.59
2024-01-08 05:22:00,SystemResetWarning,0816.5,5.01,000.00,019.2,018.6,000.0,027.6,020.5,12.1,0000.0,0003.97,0002.14,0001.59
2024-01-08 05:23:00,SystemResetWarning,0816.6,5.00,000.00,019.2,018.6,000.0,027.6,020.5,12.1,0000.0,0003.87,0002.12,0001.60
2024-01-08 05:24:00,SystemResetWarning,0816.6,5.01,000.00,019.2,018.6,000.0,027.6,020.5,12.1,0000.0,0003.80,0002.09,0001.60
2024-01-08 05:25:00,SystemResetWarning,0816.6,4.99,000.00,019.2,018.6,000.0,027.6,020.5,12.1,0000.0,0003.73,0002.10,0001.60
2024-01-08 05:26:00,SystemResetWarning,0816.6,4.99,000.00,019.2,018.6,000.0,027.6,020.5,12.1,0000.0,0003.66,0002.08,0001.60
2024-01-08 05:27:00,SystemResetWarning,0816.6,5.01,000.00,019.2,018.6,000.0,027.6,020.5,12.1,0000.0,0003.60,0002.09,0001.61
2024-01-08 05:28:00,SystemResetWarning,0816.6,5.01,000.00,019.2,018.6,000.0,027.6,020.5,12.2,0000.0,0003.38,0002.05,0001.61
2024-01-08 05:29:00,SystemResetWarning,0816.6,5.00,000.00,019.2,018.6,000.0,027.6,020.5,12.2,0000.0,0003.39,0002.04,0001.61
2024-01-08 05:30:00,SystemResetWarning,0816.6,4.99,000.00,019.2,018.6,000.0,027.6,020.5,12.2,0000.0,0003.09,0002.00,0001.60
2024-01-08 05:31:00,SystemResetWarning,0816.6,5.00,000.00,019.2,018.6,000.0,027.6,020.5,12.2,0000.0,0002.81,0001.97,0001.59
2024-01-08 05:32:00,SystemResetWarning,0816.6,5.00,000.00,019.2,018.6,000.0,027.6,020.5,12.2,0000.0,0002.79,0001.96,0001.58
2024-01-08 05:33:00,SystemResetWarning,0816.6,5.01,000.00,019.2,018.6,000.0,027.6,020.5,12.3,0000.0,0002.71,0001.92,0001.58
2024-01-08 05:34:00,SystemResetWarning,0816.6,5.01,000.00,019.2,018.6,000.0,027.6,020.5,12.3,0000.0,0002.80,0001.94,0001.58
2024-01-08 05:35:00,SystemResetWarning,0816.6,5.00,000.00,019.2,018.6,000.0,027.6,020.5,12.3,0000.0,0002.85,0001.96,0001.59
2024-01-08 05:36:00,SystemResetWarning,0816.6,5.00,000.00,019.2,018.6,000.0,027.6,020.5,12.3,0000.0,0002.83,0001.96,0001.59
2024-01-08 05:37:00,SystemResetWarning,0816.7,4.99,000.00,019.2,018.6,000.0,027.6,020.5,12.3,0000.0,0002.78,0001.93,0001.59
2024-01-08 05:38:00,SystemResetWarning,0816.7,5.00,000.00,019.2,018.6,000.0,027.6,020.5,12.3,0000.0,0002.81,0001.94,0001.59
2024-01-08 05:39:00,SystemResetWarning,0816.7,4.99,000.00,019.2,018.6,000.0,027.6,020.5,12.3,0000.0,0003.02,0001.99,0001.61
2024-01-08 05:40:00,SystemResetWarning,0816.7,5.00,000.00,019.2,018.6,000.0,027.6,020.5,12.3,0000.0,0002.96,0002.01,0001.63
2024-01-08 05:41:00,SystemResetWarning,0816.7,5.01,000.00,019.2,018.6,000.0,027.6,020.5,12.3,0000.0,0002.90,0002.00,0001.64
2024-01-08 05:42:00,SystemResetWarning,0816.7,5.01,000.00,019.2,018.6,000.0,027.6,020.5,12.4,0000.0,0002.85,0002.01,0001.66
2024-01-08 05:43:00,SystemResetWarning,0816.7,4.99,000.00,019.2,018.6,000.0,027.6,020.5,12.4,0000.0,0002.86,0002.03,0001.66
2024-01-08 05:44:00,SystemResetWarning,0816.7,5.00,000.00,019.2,018.6,000.0,027.6,020.5,12.4,0000.0,0002.87,0002.04,0001.66
2024-01-08 05:45:00,SystemResetWarning,0816.7,4.99,000.00,019.2,018.6,000.0,027.6,020.5,12.4,0000.0,0002.81,0002.04,0001.67
2024-01-08 05:46:00,SystemResetWarning,0816.7,5.00,000.00,019.2,018.6,000.0,027.6,020.5,12.4,0000.0,0002.86,0002.07,0001.67
2024-01-08 05:47:00,SystemResetWarning,0816.7,5.01,000.00,019.2,018.6,000.0,027.6,020.5,12.4,0000.0,0002.95,0002.09,0001.68
2024-01-08 05:48:00,SystemResetWarning,0816.7,5.01,000.00,019.2,018.6,000.0,027.6,020.5,12.4,0000.0,0003.00,0002.12,0001.69
2024-01-08 05:49:00,SystemResetWarning,0816.7,5.00,000.00,019.2,018.6,000.0,027.6,020.5,12.4,0000.0,0002.94,0002.10,0001.69
2024-01-08 05:50:00,SystemResetWarning,0816.8,5.00,000.00,019.2,018.6,000.0,027.6,020.5,12.5,0000.0,0002.79,0002.08,0001.68
2024-01-08 05:51:00,SystemResetWarning,0816.8,4.99,000.00,019.2,018.6,000.0,027.6,020.5,12.5,0000.0,0002.93,0002.10,0001.67
2024-01-08 05:52:00,SystemResetWarning,0816.8,5.00,000.00,019.2,018.6,000.0,027.6,020.5,12.5,0000.0,0003.13,0002.15,0001.67
2024-01-08 05:53:00,SystemResetWarning,0816.8,5.00,000.00,019.2,018.6,000.0,027.6,020.5,12.5,0000.0,0004.08,0002.19,0001.68
2024-01-08 05:54:00,SystemResetWarning,0816.9,5.00,000.00,019.2,018.5,000.0,027.6,020.5,12.5,0000.0,0004.16,0002.17,0001.67
2024-01-08 05:55:00,SystemResetWarning,0816.8,5.01,000.00,019.2,018.6,000.0,027.6,020.5,12.5,0000.0,0004.26,0002.20,0001.67
2024-01-08 05:56:00,SystemResetWarning,0816.8,5.01,000.00,019.2,018.6,000.0,027.6,020.5,12.5,0000.0,0004.38,0002.24,0001.68
2024-01-08 05:57:00,SystemResetWarning,0816.8,4.98,000.00,019.2,018.6,000.0,027.6,020.5,12.5,0000.0,0004.37,0002.21,0001.67
2024-01-08 05:58:00,SystemResetWarning,0816.8,4.99,000.00,019.2,018.6,000.0,027.6,020.5,12.5,0000.0,0004.21,0002.15,0001.66
2024-01-08 05:59:00,SystemResetWarning,0816.9,5.01,000.00,019.2,018.6,000.0,027.6,020.5,12.5,0000.0,0004.29,0002.17,0001.67
